User: anonymous
Location: Unspecified
(0.0000°N, 0.0000°E)
Time: 07:54:35
(UTC+02:00)
Language:

Atlas Centaur 2 - Orbit

View from above orbital plane
View from above orbital plane
View from above satellite
View from above satellite

Ground track
Ground track

The orbit data is extracted from the following two-line orbital elements,

1 00694U 63047A   14233.84807850  .00001936  00000-0  24921-3 0  5730
2 00694 030.3570 066.4492 0597548 103.6239 346.4272 13.99649874538095
Epoch (UTC): 21 August 2014 20:21:13
Eccentricity: 0.0597548
inclination: 30.3570°
perigee height: 460 km
apogee height: 1329 km
right ascension of ascending node: 66.4492°
argument of perigee: 103.6239°
revolutions per day: 13.99649874
mean anomaly at epoch: 346.4272°
orbit number at epoch: 53809

The dashed part of the orbit path shows where the satellite is in the earth's shadow,  

DLR